Location: LDNL
(36.4545°S, 141.6685°E)
Time: 11:44:04
(UTC+10:00)

Explorer 7 - Pass Details

Date: 12 August 2022
Orbit: 482 x 668 km, 50.3° (Epoch: 26 September)

Event Time Altitude Azimuth Distance (km) Brightness Sun altitude
Rises 17:35:13 0° 329° (NNW) 2,999 11.5 3.4°
Reaches altitude 10° 17:37:39 10° 335° (NNW) 2,094 10.6 2.9°
Maximum altitude 17:42:14 43° 46° (NE) 941 7.9 2.0°
Drops below altitude 10° 17:46:47 10° 116° (ESE) 2,074 9.1 1.2°
Sets 17:49:11 0° 123° (ESE) 2,969 9.9 0.7°
